Погода в Любашевке

Погода в Любашевке : погода сейчас, прогноз погоды и архив. Всё, что Вы хотите узнать о погоде в Любашевке!

Хотите узнать прогноз погоды в Любашевке? Тогда Вам сюда: Погода в Любашевке

Поиск расширенной информации на нашем сайте:

Полезная информация: Схемы вышивки рушника на иконы.

Другие новости

Новости СМИ2

Главная страница сайта

Новости сайта

03.07.2017

Напоминаем, что на нашем специализированном сайте Метеоцентр.Азия вы можете получить высокодетализированные автоматические прогнозы погоды по пунктам России, СНГ и мира в авиационном формате (включающие направление и скорость ветра, видимость, явления погоды, количество и форму облачности, нижнюю и верхнюю границу облачности).

Рекомендуем: Официальный сайт янган-тау yangantau.putevka-perm.ru.

Погода в Любашевке - сегодня

Время (UTC), дата Ветер
(°,м/с) 
Видим.   Явления Облачность Т
(°С)
Тd
(°С)
f(%) Тe
(°С)
Pmin
(гПа)
dP
(гПа)
Po
(мм)
O2
(г/м3)
Тmin Tmax R s Состояние
почвы
06 19.09.17 050 (СВ) 20000 м    8/0 средняя, верхняя 
[Ac trans|Ci fib]
+15.7 +5.1 49 +15  1018.9  0.9  748  284  +12  +2.1       
09 19.09.17 050 (СВ) 20000 м    10/3 600 м средняя, верхняя 
[Sc diur, vesp|Ac trans|Ci fib]
+19.8 +4.3 36 +20  1017.9  -0.6  747  280           
12 19.09.17 080 (В) 20000 м    10/8 600 м кучево-дожд., средняя, верхняя 
[Cb calv|Ac und|Ci fib]
+22.9 +2.5 26 +23  1016.5  -1.2  747  277           
15 19.09.17 060 (СВ) 20000 м    10/0 средняя, верхняя 
[Ac trans|Ci fib]
+22.8 +4 29 +23  1015.1  -1.4  746  277           
18 19.09.17 060 (СВ) 20000 м    ясно 
+19.9 +3.4 34 +20  1015  -0.3  745  279    +23.7       
21 19.09.17 050 (СВ) 20000 м    ясно 
+17.2 +3 39 +17  1014.8  -0.4  745  282           
00 20.09.17 050 (СВ) 20000 м    ясно 
+15.3 +4.1 47 +15  1013.7  -1.2        10     
06 20.09.17 090 (В) 20000 м    6/0 средняя, верхняя 
[Ac trans|Ci fib]
+17.2 +4.6 43 +17  1012.1  -0.7  743  281  +13.3  +1.9       
09 20.09.17 110 (В) 20000 м    1/1 1000 м 
[Cu hum]
+25 +11 41 +28  1010.8  -0.7  743  272           
12 20.09.17 210 (ЮЗ) 20000 м    1/1 1000 м 
[Cu hum]
+28.4 +14.1 42 +36  1009.3  -1.2  742  268           
15 20.09.17 180 (Ю) 20000 м    1/0 средняя 
[Ac trans]
+28 +15.4 46 +38  1008.4  -0.9  741  268           
18 20.09.17 160 (Ю) 20000 м    6/0 средняя 
[Ac trans]
+23.4 +15.2 60 +33  1007.7  -1  740  272    +29.2       
21 20.09.17 150 (ЮВ) 20000 м    10/10 420 м 
[St]
+19.8 +15.4 76 +31  1008.4  0.4  740  275           
00 21.09.17 300 (СЗ) 4000 м  дымка  10/10 300 м 
[St]
+18.5 +17.2 92 +33  1008.9  0.4  741  276           
03 21.09.17 120 (ЮВ) 4000 м  дымка  6/4 600 м средняя 
[Sc diur, vesp|Ac trans]
+17.6 +16.8 95 +30  1007.8  -1.1  740  276           
06 21.09.17 110 (В) 11000 м    9/9 300 м кучево-дожд. 
[Cb calv]
+19.6 +17.1 85 +34  1007.5  -0.1  740  274  +17         
09 21.09.17 180 (Ю) 20000 м    9/8 600 м средняя 
[Cu Sc|Ac cast]
+24.3 +18.3 69 +40  1006.9  -0.3  740  269           
12 21.09.17 160 (Ю) 20000 м    4/4 1000 м 
[Cu med, cong]
+28.2 +16.3 48 +40  1006  -0.6  739  266           
15 21.09.17 160 (Ю) 20000 м    1/1 600 м 
[Sc diur, vesp]
+27.2 +16 50 +38  1005.6  -0.5  739  267           
18 21.09.17 260 (З) 20000 м    1/0 средняя 
[Ac cast]
+21 +16.5 75 +33  1007.9  1.8  740  273           
21 21.09.17 350 (С) 10 км    3/0 средняя 
[Ac trans]
+16.6 +14.7 89 +26  1009.2  741  278           
00 22.09.17 310 (СЗ) 4000 м  слаб. ливневой дождь  10/10 300 м кучево-дожд. 
[Cb cap]
+17.3 +16.3 94 +30  1009.1  -0.1  741  277      0.0     
03 22.09.17 320 (СЗ) 4000 м  дымка{ливн. осадки}  10/9 300 м средняя 
[Sc|Ac und]
+16.7 +16 96 +29  1009.1  741  278           
06 22.09.17 270 (З) 7000 м  дымка{ливн. осадки}  10/3 600 м кучево-дожд., средняя 
[Cb calv|As op]
+17.2 +16 93 +29  1010.1  742  278  +16.4    0.0     
09 22.09.17 270 (З) 20000 м    10/8 600 м кучево-дожд., средняя 
[Cb calv|Ac und]
+18.2 +13.4 74 +25  1009.4  -0.6  741  277           
Время (UTC), дата Ветер
(°,м/с) 
Видим.   Явления Облачность Т
(°С)
Тd
(°С)
f(%) Тe
(°С)
Pmin
(гПа)
dP
(гПа)
Po
(мм)
O2
(г/м3)
Тmin Tmax R s Состояние
почвы

Для получения пояснительной информации подведите курсор к названию столбца.

ПОГОДА в Любашевке - архив

Всё, что Вы хотите узнать о погоде в Любашевке - удобно и подробно!

Выберите нужную дату (начиная с 1 января 2015* года) и нажмите кнопку "Найти".
Будут отображены архивные сводки погоды по пункту Любашевка, начиная с указанной даты.


Отображать данные в формате CSV (для использования в таблицах Excel)


Внимание! Наш архив погоды предназначен исключительно для личного некоммерческого использования в познавательных целях. Если Вам необходимы официальные справки о состоянии погоды (для производственных, юридических, коммерческих и т.п. целей), обращайтесь в органы Росгидромета.

*Примечание: данная дата относится к архиву по метеостанциям СССР (Россия, СНГ, Балтия).
Архив по метеостанциям Зарубежной Европы и Азии (кроме Китая) хранится 10 дней, по другим регионам земного шара (Китай, Африка, Америка, Австралия, Океания) - 1 день.

Любашевка - район местоположения метеостанции


Название, широта, долгота, высота метеостанции:
Любашевка 47.9°ш. 30.3°д. 183 м над ур. моря [Украина]

Дополнительная информация

В oтличие oт бoльшинства пoгoдных сайтoв мы публикуем пoдрoбную метеoинфoрмацию в детальнoм прoфессиoнальнoм фoрмате.

Характеристики температуры и влажнoсти вoздуха измеряются на высoте 2 м в тени вдали oт зданий и деревьев.
Скoрoсть ветра измеряется на высoте 10 м (на урoвне рoста челoвека скoрoсть ветра ниже в 1.5-2 раза). Если метеoстанция нахoдится в гoрoде или в лесу, тo скoрoсть ветра занижена на 2-4 м/с пo сравнению с oткрытым местoм. Скoрoсть ветра над акватoриями крупных рек и oзёр, а также на вершинах хoлмoв на 2-5 м/с выше, чем в oбычных услoвиях.
Атмoсфернoе давление в разных тoчках местнoсти мoжет значительнo oтличаться oт давления на метеoстанции, в зависимoсти oт услoвий рельефа (при пoдъёме на 10 м давление пoнижается примернo на 1 мм рт.ст.).